Havre-Saint-Pierre, Quebec

6:49 AM EDT on September 24, 2017 (GMT -0400)
Havre-Saint-Pierre

Weather History for CYGV - March, 2012

Change the Weather History Date:

Thursday, March 1, 2012

  Actual Average Record
Temperature  
Mean Temperature -4 °F -  
Max Temperature 6 °F 26 °F 37 °F (1998)
Min Temperature -14 °F 9 °F -18 °F (2009)
Degree Days  
Heating Degree Days 69    
Moisture  
Dew Point -13 °F    
Average Humidity 61    
Maximum Humidity 78    
Minimum Humidity 40    
Precipitation  
Precipitation 0.00 in - - ()
Sea Level Pressure  
Sea Level Pressure 30.35 in    
Wind  
Wind Speed 4 mph ()    
Max Wind Speed 8 mph    
Max Gust Speed -    
Visibility 9.0 miles    
Events      
Averages and records for this station are not official NWS values.
T = Trace of Precipitation, MM = Missing Value Source: Averaged Metar Reports

Daily Weather History Graph

Daily Weather History Graph

Search for Another Location

Airport or City:

Trip Planner

Search our weather history database for the weather conditions in past years. The results will help you decide how hot, cold, wet, or windy it might be!

Date:

Astronomy

Mar. 01, 2012 Rise Set
Actual Time 5:57 AM EST 4:57 PM EST
Civil Twilight 5:24 AM EST 5:29 PM EST
Nautical Twilight 4:46 AM EST 6:07 PM EST
Astronomical Twilight 4:09 AM EST 6:45 PM EST
Moon 9:44 AM EST (3/1) 1:20 AM EST (3/1)
Length of Visible Light 12h 05m
Length of Day
11h 00m
First Quarter, 56% of the Moon is Illuminated
Mar 1
First Quarter
Mar 8
Full
Mar 14
Last Quarter
Mar 22
New
Mar 30
First Quarter

Hourly Weather History & Observations

Time (EST) Temp. Windchill Dew Point Humidity Pressure Visibility Wind Dir Wind Speed Gust Speed Precip Events Conditions
12:00 AM -2.2 °F -12.5 °F -13.0 °F 60% 30.35 in 9.0 mi NNW 4.6 mph - N/A   Clear
1:00 AM -4.0 °F -19.0 °F -13.0 °F 65% 30.35 in 8.0 mi North 8.1 mph - N/A   Clear
2:00 AM -5.8 °F - -14.8 °F 65% 30.35 in 9.0 mi Variable 2.3 mph - N/A   Clear
3:00 AM -13.0 °F - -20.2 °F 70% 30.37 in 9.0 mi Calm Calm - N/A   Clear
4:00 AM -9.4 °F -18.6 °F -16.6 °F 71% 30.37 in 9.0 mi North 3.5 mph - N/A   Clear
5:00 AM -14.8 °F -24.8 °F -20.2 °F 77% 30.38 in 9.0 mi WNW 3.5 mph - N/A   Clear
6:00 AM -14.8 °F -24.8 °F -22.0 °F 70% 30.40 in 9.0 mi North 3.5 mph - N/A   Clear
7:00 AM -5.8 °F -18.4 °F -16.6 °F 60% 30.40 in 9.0 mi North 5.8 mph - N/A   Clear
8:00 AM -4.0 °F -14.6 °F -16.6 °F 55% 30.42 in 9.0 mi NNW 4.6 mph - N/A   Clear
9:00 AM -0.4 °F -8.3 °F -16.6 °F 46% 30.41 in 9.0 mi North 3.5 mph - N/A   Clear
10:00 AM 1.4 °F -6.2 °F -16.6 °F 43% 30.39 in 9.0 mi NNW 3.5 mph - N/A   Clear
11:00 AM 5.0 °F -2.1 °F -14.8 °F 40% 30.36 in 9.0 mi NE 3.5 mph - N/A   Clear
12:00 PM 5.0 °F -5.6 °F -13.0 °F 43% 30.35 in 9.0 mi South 5.8 mph - N/A   Clear
1:00 PM 6.8 °F -3.5 °F -11.2 °F 44% 30.34 in 9.0 mi Variable 5.8 mph - N/A   Clear
2:00 PM 6.8 °F -0.1 °F -9.4 °F 48% 30.33 in 9.0 mi South 3.5 mph - N/A   Clear
4:00 PM 6.8 °F -0.1 °F -7.6 °F 52% 30.32 in 9.0 mi South 3.5 mph - N/A   Clear
5:00 PM 3.2 °F - -7.6 °F 61% 30.32 in 9.0 mi Calm Calm - N/A   Clear
6:00 PM -2.2 °F - -9.4 °F 71% 30.31 in 9.0 mi North 2.3 mph - N/A   Clear
7:00 PM -2.2 °F -12.5 °F -9.4 °F 71% 30.32 in 9.0 mi North 4.6 mph - N/A   Clear
8:00 PM -4.0 °F -14.6 °F -9.4 °F 78% 30.32 in 9.0 mi NNE 4.6 mph - N/A   Clear
9:00 PM -2.2 °F -16.8 °F -9.4 °F 71% 30.32 in 9.0 mi North 8.1 mph - N/A   Clear
10:00 PM -4.0 °F -14.6 °F -11.2 °F 71% 30.30 in 9.0 mi NNE 4.6 mph - N/A   Clear
11:00 PM -2.2 °F -16.8 °F -11.2 °F 66% 30.30 in 9.0 mi NNE 8.1 mph - N/A   Clear